Time,TemperatureF,DewpointF,PressureIn,WindDirection,WindDirectionDegrees,WindSpeedMPH,WindSpeedGustMPH,Humidity,HourlyPrecipIn,Conditions,Clouds,dailyrainin,SoftwareType,DateUTC
2013-03-11 00:01:00,49.0,23.0,24.32,WNW,301,12.0,15.0,35,0.00,,,0.00,,2013-03-11 06:01:00,
2013-03-11 00:11:00,49.0,23.0,24.32,WNW,301,12.0,15.0,35,0.00,,,0.00,,2013-03-11 06:11:00,
2013-03-11 00:21:00,49.0,23.0,24.32,WNW,295,7.0,8.0,36,0.00,,,0.00,,2013-03-11 06:21:00,
2013-03-11 00:32:00,48.0,22.0,24.32,WNW,291,5.0,5.0,36,0.00,,,0.00,,2013-03-11 06:32:00,
2013-03-11 00:42:00,48.0,22.0,24.32,WNW,291,5.0,5.0,36,0.00,,,0.00,,2013-03-11 06:42:00,
2013-03-11 00:52:00,48.0,24.0,24.32,NNW,346,1.0,7.0,38,0.00,,,0.00,,2013-03-11 06:52:00,
2013-03-11 01:01:00,48.0,24.0,24.32,NW,326,7.0,10.0,38,0.00,,,0.00,,2013-03-11 07:01:00,
2013-03-11 01:11:00,48.0,24.0,24.32,NW,314,5.0,7.0,39,0.00,,,0.00,,2013-03-11 07:11:00,
2013-03-11 01:21:00,48.0,24.0,24.32,NW,314,5.0,7.0,39,0.00,,,0.00,,2013-03-11 07:21:00,
2013-03-11 01:31:00,47.0,25.0,24.32,WNW,287,6.0,6.0,41,0.00,,,0.00,,2013-03-11 07:31:00,
2013-03-11 01:41:00,47.0,25.0,24.32,WNW,287,6.0,6.0,41,0.00,,,0.00,,2013-03-11 07:41:00,
2013-03-11 01:52:00,47.0,29.0,24.32,NNW,328,7.0,8.0,49,0.00,,,0.00,,2013-03-11 07:52:00,
2013-03-11 02:01:00,47.0,29.0,24.32,NW,323,7.0,10.0,50,0.00,,,0.00,,2013-03-11 08:01:00,
2013-03-11 02:21:00,46.0,29.0,24.32,North,352,9.0,13.0,52,0.00,,,0.00,,2013-03-11 08:21:00,
2013-03-11 02:31:00,46.0,30.0,24.32,North,353,10.0,14.0,53,0.00,,,0.00,,2013-03-11 08:31:00,
2013-03-11 02:41:00,46.0,30.0,24.32,North,353,10.0,14.0,53,0.00,,,0.00,,2013-03-11 08:41:00,
2013-03-11 02:52:00,45.0,29.0,24.32,NW,323,13.0,14.0,54,0.00,,,0.00,,2013-03-11 08:52:00,
2013-03-11 03:01:00,45.0,30.0,24.32,WNW,294,13.0,15.0,56,0.00,,,0.00,,2013-03-11 09:01:00,
2013-03-11 03:11:00,45.0,30.0,24.32,WNW,294,13.0,15.0,56,0.00,,,0.00,,2013-03-11 09:11:00,
2013-03-11 03:21:00,43.0,30.0,24.32,WNW,302,8.0,9.0,59,0.00,,,0.00,,2013-03-11 09:21:00,
2013-03-11 03:31:00,43.0,30.0,24.32,WNW,294,8.0,12.0,60,0.00,,,0.00,,2013-03-11 09:31:00,
2013-03-11 03:41:00,43.0,30.0,24.32,WNW,294,8.0,12.0,60,0.00,,,0.00,,2013-03-11 09:41:00,
2013-03-11 03:52:00,42.0,30.0,24.32,WNW,299,5.0,6.0,61,0.00,,,0.00,,2013-03-11 09:52:00,
2013-03-11 04:01:00,42.0,30.0,24.32,NW,325,5.0,5.0,62,0.00,,,0.00,,2013-03-11 10:01:00,
2013-03-11 04:21:00,42.0,30.0,24.32,NW,319,5.0,7.0,62,0.00,,,0.00,,2013-03-11 10:21:00,
2013-03-11 04:32:00,42.0,31.0,24.32,NW,315,8.0,12.0,64,0.00,,,0.00,,2013-03-11 10:32:00,
2013-03-11 04:41:00,42.0,31.0,24.32,NW,315,8.0,12.0,64,0.00,,,0.00,,2013-03-11 10:41:00,
2013-03-11 04:52:00,42.0,29.0,24.32,NW,322,7.0,14.0,60,0.00,,,0.00,,2013-03-11 10:52:00,
2013-03-11 05:01:00,42.0,28.0,24.32,NW,317,8.0,13.0,57,0.00,,,0.00,,2013-03-11 11:01:00,
2013-03-11 05:11:00,42.0,28.0,24.32,NW,317,8.0,13.0,57,0.00,,,0.00,,2013-03-11 11:11:00,
2013-03-11 05:21:00,43.0,27.0,24.32,NNW,345,13.0,13.0,52,0.00,,,0.00,,2013-03-11 11:21:00,
2013-03-11 05:31:00,43.0,27.0,24.32,NNW,338,8.0,10.0,52,0.00,,,0.00,,2013-03-11 11:31:00,
2013-03-11 05:41:00,43.0,27.0,24.32,NNW,338,8.0,10.0,52,0.00,,,0.00,,2013-03-11 11:41:00,
2013-03-11 05:52:00,42.0,26.0,24.32,NNW,337,9.0,12.0,53,0.00,,,0.00,,2013-03-11 11:52:00,
2013-03-11 06:11:00,42.0,26.0,24.32,NNW,333,10.0,12.0,53,0.00,,,0.00,,2013-03-11 12:11:00,
2013-03-11 06:22:00,41.0,26.0,24.32,North,10,9.0,12.0,55,0.00,,,0.00,,2013-03-11 12:22:00,
2013-03-11 06:32:00,41.0,27.0,24.32,North,8,7.0,12.0,56,0.00,,,0.00,,2013-03-11 12:32:00,
2013-03-11 06:42:00,41.0,27.0,24.32,North,8,7.0,12.0,56,0.00,,,0.00,,2013-03-11 12:42:00,
2013-03-11 06:52:00,39.0,26.0,24.32,North,357,2.0,2.0,60,0.00,,,0.00,,2013-03-11 12:52:00,
2013-03-11 07:01:00,39.0,26.0,24.32,NE,46,2.0,3.0,60,0.00,,,0.00,,2013-03-11 13:01:00,
2013-03-11 07:11:00,39.0,26.0,24.32,NE,46,2.0,3.0,60,0.00,,,0.00,,2013-03-11 13:11:00,
2013-03-11 07:21:00,39.0,27.0,24.32,NW,307,2.0,2.0,61,0.00,,,0.00,,2013-03-11 13:21:00,
2013-03-11 07:31:00,39.0,27.0,24.32,NNE,16,0.0,0.0,61,0.00,,,0.00,,2013-03-11 13:31:00,
2013-03-11 07:41:00,39.0,27.0,24.32,NNE,16,0.0,0.0,61,0.00,,,0.00,,2013-03-11 13:41:00,
2013-03-11 07:52:00,37.0,26.0,24.32,NNE,16,0.0,0.0,63,0.00,,,0.00,,2013-03-11 13:52:00,
2013-03-11 08:01:00,36.0,25.0,24.32,SW,231,2.0,3.0,64,0.00,,,0.00,,2013-03-11 14:01:00,
2013-03-11 08:11:00,36.0,25.0,24.32,SW,231,2.0,3.0,64,0.00,,,0.00,,2013-03-11 14:11:00,
2013-03-11 08:21:00,35.0,25.0,24.32,West,272,0.0,3.0,67,0.00,,,0.00,,2013-03-11 14:21:00,
2013-03-11 08:32:00,36.0,26.0,24.32,WSW,256,0.0,0.0,67,0.00,,,0.00,,2013-03-11 14:32:00,
2013-03-11 08:41:00,36.0,26.0,24.32,WSW,256,0.0,0.0,67,0.00,,,0.00,,2013-03-11 14:41:00,
2013-03-11 08:52:00,36.0,26.0,24.32,WNW,298,5.0,5.0,66,0.00,,,0.00,,2013-03-11 14:52:00,
2013-03-11 09:01:00,37.0,27.0,24.32,WNW,283,6.0,6.0,66,0.00,,,0.00,,2013-03-11 15:01:00,
2013-03-11 09:11:00,37.0,27.0,24.32,WNW,283,6.0,6.0,66,0.00,,,0.00,,2013-03-11 15:11:00,
2013-03-11 09:21:00,38.0,27.0,24.32,North,3,0.0,0.0,64,0.00,,,0.00,,2013-03-11 15:21:00,
2013-03-11 09:31:00,39.0,27.0,24.32,North,3,0.0,0.0,61,0.00,,,0.00,,2013-03-11 15:31:00,
2013-03-11 09:42:00,39.0,27.0,24.32,North,3,0.0,0.0,61,0.00,,,0.00,,2013-03-11 15:42:00,
2013-03-11 09:53:00,40.0,27.0,24.32,North,3,0.0,0.0,60,0.00,,,0.00,,2013-03-11 15:53:00,
2013-03-11 10:01:00,41.0,27.0,24.32,North,3,0.0,0.0,58,0.00,,,0.00,,2013-03-11 16:01:00,
2013-03-11 10:11:00,41.0,27.0,24.32,North,3,0.0,0.0,58,0.00,,,0.00,,2013-03-11 16:11:00,
2013-03-11 10:22:00,44.0,28.0,24.32,South,174,5.0,6.0,54,0.00,,,0.00,,2013-03-11 16:22:00,
2013-03-11 10:31:00,44.0,28.0,24.32,ESE,119,2.0,5.0,52,0.00,,,0.00,,2013-03-11 16:31:00,
2013-03-11 10:42:00,44.0,28.0,24.32,ESE,119,2.0,5.0,52,0.00,,,0.00,,2013-03-11 16:42:00,
2013-03-11 10:52:00,45.0,27.0,24.32,NE,42,5.0,9.0,50,0.00,,,0.00,,2013-03-11 16:52:00,
2013-03-11 11:01:00,46.0,21.0,24.32,NW,308,25.0,36.0,37,0.00,,,0.00,,2013-03-11 17:01:00,
2013-03-11 11:23:00,48.0,24.0,24.32,NNW,342,17.0,25.0,38,0.00,,,0.00,,2013-03-11 17:23:00,
2013-03-11 11:32:00,46.0,26.0,24.32,NNW,331,18.0,24.0,46,0.00,,,0.00,,2013-03-11 17:32:00,
2013-03-11 11:52:00,48.0,28.0,24.32,NNE,21,16.0,18.0,45,0.00,,,0.00,,2013-03-11 17:52:00,
2013-03-11 12:01:00,47.0,26.0,24.32,North,0,16.0,18.0,44,0.00,,,0.00,,2013-03-11 18:01:00,
2013-03-11 12:11:00,47.0,26.0,24.32,North,0,16.0,18.0,44,0.00,,,0.00,,2013-03-11 18:11:00,
2013-03-11 12:21:00,46.0,27.0,24.32,NNW,343,8.0,20.0,48,0.00,,,0.00,,2013-03-11 18:21:00,
2013-03-11 12:32:00,45.0,27.0,24.32,ENE,59,9.0,16.0,50,0.00,,,0.00,,2013-03-11 18:32:00,
2013-03-11 12:42:00,45.0,27.0,24.32,ENE,59,9.0,16.0,50,0.00,,,0.00,,2013-03-11 18:42:00,
2013-03-11 12:52:00,43.0,28.0,24.32,NNE,13,9.0,18.0,54,0.00,,,0.00,,2013-03-11 18:52:00,
2013-03-11 13:01:00,43.0,28.0,24.32,NNE,29,8.0,12.0,55,0.00,,,0.00,,2013-03-11 19:01:00,
2013-03-11 13:22:00,45.0,27.0,24.32,NNE,19,12.0,13.0,48,0.00,,,0.00,,2013-03-11 19:22:00,
2013-03-11 13:32:00,46.0,27.0,24.32,North,355,12.0,17.0,48,0.00,,,0.00,,2013-03-11 19:32:00,
2013-03-11 13:41:00,46.0,27.0,24.32,North,355,12.0,17.0,48,0.00,,,0.00,,2013-03-11 19:41:00,
2013-03-11 13:52:00,46.0,27.0,24.32,North,351,12.0,21.0,48,0.00,,,0.00,,2013-03-11 19:52:00,
2013-03-11 14:01:00,47.0,27.0,24.32,North,354,16.0,18.0,46,0.00,,,0.00,,2013-03-11 20:01:00,
2013-03-11 14:11:00,47.0,27.0,24.32,North,354,16.0,18.0,46,0.00,,,0.00,,2013-03-11 20:11:00,
2013-03-11 14:21:00,44.0,30.0,24.32,NNE,33,7.0,13.0,57,0.00,,,0.00,,2013-03-11 20:21:00,
2013-03-11 14:31:00,45.0,28.0,24.32,North,354,13.0,14.0,52,0.00,,,0.00,,2013-03-11 20:31:00,
2013-03-11 14:42:00,45.0,28.0,24.32,North,354,13.0,14.0,52,0.00,,,0.00,,2013-03-11 20:42:00,
2013-03-11 14:52:00,41.0,29.0,24.32,NE,47,10.0,14.0,63,0.00,,,0.00,,2013-03-11 20:52:00,
2013-03-11 15:02:00,42.0,30.0,24.32,NNE,28,13.0,17.0,61,0.00,,,0.00,,2013-03-11 21:02:00,
2013-03-11 15:11:00,42.0,30.0,24.32,NNE,28,13.0,17.0,61,0.00,,,0.00,,2013-03-11 21:11:00,
2013-03-11 15:21:00,41.0,29.0,24.32,NNE,31,14.0,17.0,63,0.00,,,0.00,,2013-03-11 21:21:00,
2013-03-11 15:31:00,40.0,28.0,24.32,NE,49,12.0,13.0,62,0.00,,,0.00,,2013-03-11 21:31:00,
2013-03-11 15:42:00,40.0,28.0,24.32,NE,49,12.0,13.0,62,0.00,,,0.00,,2013-03-11 21:42:00,
2013-03-11 15:52:00,39.0,27.0,24.32,NE,47,10.0,17.0,62,0.00,,,0.00,,2013-03-11 21:52:00,
2013-03-11 16:01:00,39.0,27.0,24.32,NE,51,14.0,22.0,61,0.00,,,0.00,,2013-03-11 22:01:00,
2013-03-11 16:11:00,39.0,27.0,24.32,NE,51,14.0,22.0,61,0.00,,,0.00,,2013-03-11 22:11:00,
2013-03-11 16:21:00,39.0,27.0,24.32,NE,55,12.0,15.0,63,0.00,,,0.00,,2013-03-11 22:21:00,
2013-03-11 16:31:00,39.0,27.0,24.32,NE,39,9.0,13.0,61,0.00,,,0.00,,2013-03-11 22:31:00,
2013-03-11 16:42:00,39.0,27.0,24.32,NE,39,9.0,13.0,61,0.00,,,0.00,,2013-03-11 22:42:00,
2013-03-11 16:53:00,38.0,27.0,24.32,NNE,26,10.0,18.0,63,0.00,,,0.00,,2013-03-11 22:53:00,
2013-03-11 17:01:00,38.0,27.0,24.32,NNE,19,10.0,16.0,65,0.00,,,0.00,,2013-03-11 23:01:00,
2013-03-11 17:11:00,38.0,27.0,24.32,NNE,19,10.0,16.0,65,0.00,,,0.00,,2013-03-11 23:11:00,
2013-03-11 17:21:00,37.0,27.0,24.32,NE,40,10.0,14.0,66,0.00,,,0.00,,2013-03-11 23:21:00,
2013-03-11 17:32:00,38.0,28.0,24.32,NE,49,9.0,13.0,66,0.00,,,0.00,,2013-03-11 23:32:00,
2013-03-11 17:42:00,38.0,26.0,24.32,NNE,23,13.0,18.0,62,0.00,,,0.00,,2013-03-11 23:42:00,
2013-03-11 17:53:00,38.0,26.0,24.32,NNE,23,13.0,18.0,62,0.00,,,0.00,,2013-03-11 23:53:00,
2013-03-11 18:01:00,37.0,24.0,24.32,NE,49,9.0,12.0,60,0.00,,,0.00,,2013-03-12 00:01:00,
2013-03-11 18:11:00,37.0,24.0,24.32,NE,49,9.0,12.0,60,0.00,,,0.00,,2013-03-12 00:11:00,
2013-03-11 18:22:00,37.0,24.0,24.32,NE,37,9.0,10.0,58,0.00,,,0.00,,2013-03-12 00:22:00,
2013-03-11 18:32:00,36.0,22.0,24.32,NE,44,10.0,12.0,57,0.00,,,0.00,,2013-03-12 00:32:00,
2013-03-11 18:42:00,36.0,22.0,24.32,NE,44,10.0,12.0,57,0.00,,,0.00,,2013-03-12 00:42:00,
2013-03-11 18:53:00,36.0,20.0,24.32,NNE,29,6.0,9.0,52,0.00,,,0.00,,2013-03-12 00:53:00,
2013-03-11 19:01:00,37.0,21.0,24.32,NE,43,9.0,13.0,52,0.00,,,0.00,,2013-03-12 01:01:00,
2013-03-11 19:11:00,37.0,21.0,24.32,NE,43,9.0,13.0,52,0.00,,,0.00,,2013-03-12 01:11:00,
2013-03-11 19:21:00,36.0,21.0,24.32,NNE,26,8.0,10.0,54,0.00,,,0.00,,2013-03-12 01:21:00,
2013-03-11 19:31:00,36.0,21.0,24.32,NE,36,6.0,9.0,53,0.00,,,0.00,,2013-03-12 01:31:00,
2013-03-11 19:41:00,36.0,21.0,24.32,NE,36,6.0,9.0,53,0.00,,,0.00,,2013-03-12 01:41:00,
2013-03-11 19:52:00,35.0,19.0,24.32,NE,37,13.0,16.0,52,0.00,,,0.00,,2013-03-12 01:52:00,
2013-03-11 20:01:00,35.0,20.0,24.32,NE,40,8.0,13.0,53,0.00,,,0.00,,2013-03-12 02:01:00,
2013-03-11 20:11:00,35.0,20.0,24.32,NE,40,8.0,13.0,53,0.00,,,0.00,,2013-03-12 02:11:00,
2013-03-11 20:21:00,35.0,19.0,24.32,NE,37,8.0,10.0,52,0.00,,,0.00,,2013-03-12 02:21:00,
2013-03-11 20:31:00,35.0,19.0,24.32,NE,37,6.0,7.0,52,0.00,,,0.00,,2013-03-12 02:31:00,
2013-03-11 20:42:00,35.0,19.0,24.32,NE,37,6.0,7.0,52,0.00,,,0.00,,2013-03-12 02:42:00,
2013-03-11 20:52:00,35.0,19.0,24.32,NE,41,10.0,13.0,52,0.00,,,0.00,,2013-03-12 02:52:00,
2013-03-11 21:01:00,35.0,19.0,24.32,NNE,33,9.0,9.0,52,0.00,,,0.00,,2013-03-12 03:01:00,
2013-03-11 21:11:00,35.0,19.0,24.32,NNE,33,9.0,9.0,52,0.00,,,0.00,,2013-03-12 03:11:00,
2013-03-11 21:21:00,35.0,20.0,24.32,NNE,14,9.0,12.0,54,0.00,,,0.00,,2013-03-12 03:21:00,
2013-03-11 21:31:00,34.0,19.0,24.32,NNE,32,7.0,9.0,53,0.00,,,0.00,,2013-03-12 03:31:00,
2013-03-11 21:42:00,34.0,19.0,24.32,NNE,32,7.0,9.0,53,0.00,,,0.00,,2013-03-12 03:42:00,
2013-03-11 21:52:00,34.0,19.0,24.32,North,7,10.0,13.0,53,0.00,,,0.00,,2013-03-12 03:52:00,
2013-03-11 22:01:00,34.0,19.0,24.32,NNE,30,8.0,12.0,53,0.00,,,0.00,,2013-03-12 04:01:00,
2013-03-11 22:12:00,34.0,19.0,24.32,NNE,30,8.0,12.0,53,0.00,,,0.00,,2013-03-12 04:12:00,
2013-03-11 22:22:00,34.0,20.0,24.32,NNE,17,17.0,20.0,56,0.00,,,0.00,,2013-03-12 04:22:00,
2013-03-11 22:32:00,33.0,19.0,24.32,NE,34,8.0,9.0,57,0.00,,,0.00,,2013-03-12 04:32:00,
2013-03-11 22:42:00,33.0,19.0,24.32,NE,34,8.0,9.0,57,0.00,,,0.00,,2013-03-12 04:42:00,
2013-03-11 22:52:00,33.0,19.0,24.32,NNE,15,6.0,8.0,57,0.00,,,0.00,,2013-03-12 04:52:00,
2013-03-11 23:02:00,33.0,19.0,24.32,NNW,331,3.0,5.0,56,0.00,,,0.00,,2013-03-12 05:02:00,
2013-03-11 23:11:00,33.0,19.0,24.32,NNW,331,3.0,5.0,56,0.00,,,0.00,,2013-03-12 05:11:00,
2013-03-11 23:21:00,33.0,20.0,24.32,NNW,348,8.0,9.0,58,0.00,,,0.00,,2013-03-12 05:21:00,
2013-03-11 23:31:00,33.0,20.0,24.32,North,352,6.0,6.0,58,0.00,,,0.00,,2013-03-12 05:31:00,
2013-03-11 23:41:00,33.0,20.0,24.32,North,352,6.0,6.0,58,0.00,,,0.00,,2013-03-12 05:41:00,
2013-03-11 23:52:00,33.0,20.0,24.32,NW,313,3.0,5.0,59,0.00,,,0.00,,2013-03-12 05:52:00,